SCP
0 0 0 0 0 0 0 -0 0 -0 0 0 0 0 0 0 0 -0 -0 -0 -0 -0 -0 -0 -0 -0 -0 -0 -0 -0 -0 -0
0 -0 0 0 0 0 0 0 0 0 0 0 0 0 0 0 0 -0 -0 -0 -0 -0 -0 -0 -0 -0 -0 -0 -0 -0 -0 -0
0 0 0 0 0 0 0 0 0 0 0 0 0 0 0 0 0 -0 -0 -0 -0 -0 -0 -0 -0 -0 -0 -0 -0 -0 -0 -0
0 -0 0 0 0 0 0 0 0 0 0 0 0 0 0 0 0 -0 -0 -0 -0 -0 -0 -0 -0 -0 -0 -0 -0 -0 -0 -0
0 0 0 0 0 0 0 0 0 0 0 0 0 0 -0 -0 0 0 0 0 0 -0 -0 -0 -0 -0 0 0 -0 -0 -0 -0
0 0 0 0 0 0 0 0 0 0 0 0 1 0 0 -0 0 0 0 0 0 0 -0 0 -0 -0 0 0 0 0 -0 -0
0 0 0 0 0 0 0 0 0 0 0 0 1 0 0 0 0 0 0 0 0 0 0 0 0 0 0 0 0 0 0 0
0 0 0 0 0 0 0 0 0 0 0 0 0 0 0 0 0 0 0 0 0 0 0 0 0 0 0 0 0 0 0 0
0 0 0 0 0 0 0 0 0 0 0 0 0 0 0 0 0 0 0 0 0 0 0 0 0 0 0 0 0 0 0 0
0 0 0 0 0 0 0 0 0 0 0 0 0 0 0 -0 0 0 -0 0 0 0 0 0 0 0 0 0 0 0 0 0
0 0 0 0 -0 -0 0 0 0 0 0 0 0 0 0 0 0 0 0 -0 0 0 0 0 0 0 0 0 0 0 0 0
0 0 0 0 -0 -0 0 0 0 0 0 0 0 0 1 0 0 0 0 0 0 0 0 0 0 0 0 0 0 0 0 0
0 0 0 0 0 0 -0 0 0 0 0 0 0 0 1 1 1 0 0 0 0 0 0 0 0 1 1 0 0 0 0 0
0 0 0 0 0 0 0 0 -0 0 0 0 0 0 0 0 1 0 0 0 0 0 0 0 1 1 1 0 0 0 0 0
0 0 0 0 0 0 0 0 0 -0 0 0 0 0 0 0 0 0 0 0 0 0 0 0 0 1 1 1 1 0 0 0
0 0 0 0 0 0 0 0 0 0 0 0 0 0 0 0 0 0 0 1 0 1 1 1 1 1 0 0 0 0 0 1
0 0 0 0 0 0 0 0 0 0 0 0 0 0 0 0 0 0 0 0 0 1 1 1 1 1 0 0 -0 0 0 0
0 0 0 0 0 0 0 0 0 0 0 0 0 0 0 0 0 1 0 0 0 0 1 1 1 1 1 0 0 0 -0 0
0 0 0 0 0 0 0 0 0 0 0 0 0 0 0 0 1 1 1 1 1 1 1 1 1 1 1 1 1 0 0 0
0 0 0 0 0 0 0 0 0 0 0 0 0 0 0 0 1 1 1 1 1 1 2 1 1 1 1 1 1 1 1 0
Wind_Speed_500mb
10 16 19 11 7 4 6 10 13 8 7 5 3 2 6 11 27 47 54 58 58 56 51 47 43 40 40 38 35 30 26 24
20 32 8 9 10 6 8 3 15 13 11 6 9 5 5 12 33 51 54 57 58 56 53 48 45 43 42 39 34 30 26 22
25 32 26 6 11 13 13 10 17 15 6 6 2 17 9 14 39 51 57 54 58 56 53 50 47 44 41 38 34 30 25 22
27 31 20 11 19 15 19 6 11 20 10 3 1 1 7 22 39 46 54 51 61 56 52 48 46 43 40 37 33 30 26 23
29 21 15 15 15 26 16 21 10 21 10 5 3 6 16 27 40 46 49 51 60 58 54 49 44 42 40 37 33 30 27 24
24 23 23 5 17 9 18 14 15 9 5 13 3 12 21 28 37 44 48 48 49 58 56 53 48 44 40 36 33 31 28 26
28 18 15 9 12 12 13 24 12 5 9 8 7 15 20 27 35 45 49 51 47 48 48 47 41 48 43 39 36 34 32 30
5 13 12 9 10 15 19 18 20 9 3 2 13 22 26 32 40 49 54 55 52 50 48 46 41 41 47 44 41 39 36 34
13 19 14 14 17 17 23 24 25 10 11 8 14 21 25 28 31 41 48 52 54 54 53 49 44 41 42 37 37 39 39 36
13 16 22 20 16 24 26 32 20 22 24 17 23 23 25 27 29 38 51 53 53 54 59 54 45 42 38 37 35 33 35 41
24 22 22 23 27 27 28 30 23 18 16 15 21 22 24 25 27 33 46 52 55 53 59 62 60 43 42 39 37 32 32 37
18 23 20 25 28 20 26 21 25 17 12 13 10 19 22 23 24 30 39 49 51 55 55 57 62 53 46 49 40 41 33 33
27 28 23 22 29 32 31 16 25 20 14 10 14 12 16 16 19 24 32 40 50 56 55 61 62 64 54 41 42 40 38 41
13 19 23 23 25 28 16 16 25 26 18 13 8 11 11 13 19 25 30 38 43 46 53 59 59 59 56 48 47 47 46 41
16 16 10 28 23 15 20 16 20 26 22 14 8 5 9 7 15 25 30 34 38 46 50 50 54 54 52 52 47 51 56 50
21 15 20 22 24 17 25 19 21 14 14 8 3 13 17 20 18 19 28 34 38 43 50 55 52 58 54 35 24 36 40 55
13 6 15 27 26 23 24 27 31 16 5 6 14 16 21 24 23 20 16 28 35 40 49 56 60 61 57 64 59 50 51 58
13 14 19 16 24 24 21 10 3 2 7 14 20 24 26 28 26 27 17 17 30 37 44 53 56 55 57 56 51 57 70 52
20 15 20 17 27 23 17 19 14 13 13 16 23 29 31 32 30 29 28 23 22 34 39 47 52 52 61 70 72 70 71 74
20 19 22 26 22 29 30 19 12 14 16 20 24 27 31 31 32 32 30 29 25 25 35 38 44 49 54 56 71 75 70 60
Wind_Direction_500mb
268 259 255 93 81 37 324 325 353 331 248 302 106 117 163 180 168 166 172 179 182 179 177 177 178 179 178 178 175 171 172 169
252 251 197 286 121 21 326 67 356 340 261 206 194 157 163 188 172 169 172 176 182 181 179 179 179 180 181 180 177 176 175 174
241 250 266 235 284 305 304 325 358 357 5 254 200 222 254 190 174 174 173 174 183 183 183 183 182 184 185 184 182 180 180 182
240 240 236 264 274 277 283 309 346 338 304 72 336 220 171 166 168 173 173 174 183 186 185 189 188 189 190 190 189 187 187 190
258 269 266 271 276 262 294 289 20 331 298 64 61 151 142 150 163 170 176 174 184 186 189 192 194 195 197 197 196 197 196 197
245 251 245 160 256 266 274 300 327 339 14 59 57 145 144 147 160 169 178 178 180 186 190 193 197 201 202 204 205 205 206 205
238 246 232 171 254 259 278 271 275 286 324 300 185 156 149 150 162 173 181 184 182 183 187 189 194 203 204 207 209 212 213 215
302 281 249 206 244 281 284 248 260 219 76 37 181 178 175 174 176 180 185 189 188 187 190 189 194 201 205 210 213 214 218 221
223 249 247 273 261 250 260 261 233 273 305 252 207 199 196 194 198 192 193 193 192 190 191 191 195 197 201 205 209 216 217 219
247 230 250 252 277 258 248 255 275 288 291 261 223 215 208 210 206 202 199 198 199 198 203 196 198 202 202 203 210 214 220 225
244 242 248 259 252 255 253 252 262 281 291 259 234 217 212 219 220 206 207 205 204 203 209 210 207 206 205 207 214 218 222 228
238 238 232 244 248 235 244 238 260 260 261 239 223 206 206 214 214 208 206 208 205 208 212 211 215 212 215 221 217 222 224 226
234 237 234 232 246 230 244 251 249 247 254 252 228 218 221 230 232 221 219 212 209 209 212 219 225 226 221 220 221 227 228 233
189 218 222 220 246 205 191 242 248 241 251 263 262 260 250 248 242 231 219 220 215 212 215 226 224 230 226 226 230 234 239 235
164 207 190 212 246 174 200 234 250 254 251 262 283 17 13 321 262 247 236 226 228 226 218 219 222 225 227 232 242 251 250 246
250 160 224 214 246 235 232 233 237 244 253 276 343 26 10 358 323 267 238 236 228 231 231 226 227 234 228 221 225 252 255 252
235 237 252 247 253 245 228 225 232 214 218 335 348 4 1 2 3 342 264 237 232 234 233 229 232 231 229 215 211 209 222 254
255 230 222 225 242 234 222 191 139 187 40 359 346 352 358 356 353 357 341 255 242 236 236 236 233 231 227 227 226 223 213 243
255 163 236 257 240 213 137 145 115 66 40 16 -0 351 355 356 356 350 345 327 262 243 231 235 230 235 234 229 229 226 231 244
225 225 244 196 259 184 163 147 93 49 33 20 13 9 5 4 2 357 344 337 313 251 240 233 232 229 236 231 234 235 239 249
Wind_Speed_850mb
10 16 19 11 7 4 6 10 13 8 7 5 3 2 6 11 27 47 54 58 58 56 51 47 43 40 40 38 35 30 26 24
20 32 8 9 10 6 8 3 15 13 11 6 9 5 5 12 33 51 54 57 58 56 53 48 45 43 42 39 34 30 26 22
25 32 26 6 11 13 13 10 17 15 6 6 2 17 9 14 39 51 57 54 58 56 53 50 47 44 41 38 34 30 25 22
27 31 20 11 19 15 19 6 11 20 10 3 1 1 7 22 39 46 54 51 61 56 52 48 46 43 40 37 33 30 26 23
29 21 15 15 15 26 16 21 10 21 10 5 3 6 16 27 40 46 49 51 60 58 54 49 44 42 40 37 33 30 27 24
24 23 23 5 17 9 18 14 15 9 5 13 3 12 21 28 37 44 48 48 49 58 56 53 48 44 40 36 33 31 28 26
28 18 15 9 12 12 13 24 12 5 9 8 7 15 20 27 35 45 49 51 47 48 48 47 41 48 43 39 36 34 32 30
5 13 12 9 10 15 19 18 20 9 3 2 13 22 26 32 40 49 54 55 52 50 48 46 41 41 47 44 41 39 36 34
13 19 14 14 17 17 23 24 25 10 11 8 14 21 25 28 31 41 48 52 54 54 53 49 44 41 42 37 37 39 39 36
13 16 22 20 16 24 26 32 20 22 24 17 23 23 25 27 29 38 51 53 53 54 59 54 45 42 38 37 35 33 35 41
24 22 22 23 27 27 28 30 23 18 16 15 21 22 24 25 27 33 46 52 55 53 59 62 60 43 42 39 37 32 32 37
18 23 20 25 28 20 26 21 25 17 12 13 10 19 22 23 24 30 39 49 51 55 55 57 62 53 46 49 40 41 33 33
27 28 23 22 29 32 31 16 25 20 14 10 14 12 16 16 19 24 32 40 50 56 55 61 62 64 54 41 42 40 38 41
13 19 23 23 25 28 16 16 25 26 18 13 8 11 11 13 19 25 30 38 43 46 53 59 59 59 56 48 47 47 46 41
16 16 10 28 23 15 20 16 20 26 22 14 8 5 9 7 15 25 30 34 38 46 50 50 54 54 52 52 47 51 56 50
21 15 20 22 24 17 25 19 21 14 14 8 3 13 17 20 18 19 28 34 38 43 50 55 52 58 54 35 24 36 40 55
13 6 15 27 26 23 24 27 31 16 5 6 14 16 21 24 23 20 16 28 35 40 49 56 60 61 57 64 59 50 51 58
13 14 19 16 24 24 21 10 3 2 7 14 20 24 26 28 26 27 17 17 30 37 44 53 56 55 57 56 51 57 70 52
20 15 20 17 27 23 17 19 14 13 13 16 23 29 31 32 30 29 28 23 22 34 39 47 52 52 61 70 72 70 71 74
20 19 22 26 22 29 30 19 12 14 16 20 24 27 31 31 32 32 30 29 25 25 35 38 44 49 54 56 71 75 70 60
Wind_Direction_850mb
268 259 255 93 81 37 324 325 353 331 248 302 106 117 163 180 168 166 172 179 182 179 177 177 178 179 178 178 175 171 172 169
252 251 197 286 121 21 326 67 356 340 261 206 194 157 163 188 172 169 172 176 182 181 179 179 179 180 181 180 177 176 175 174
241 250 266 235 284 305 304 325 358 357 5 254 200 222 254 190 174 174 173 174 183 183 183 183 182 184 185 184 182 180 180 182
240 240 236 264 274 277 283 309 346 338 304 72 336 220 171 166 168 173 173 174 183 186 185 189 188 189 190 190 189 187 187 190
258 269 266 271 276 262 294 289 20 331 298 64 61 151 142 150 163 170 176 174 184 186 189 192 194 195 197 197 196 197 196 197
245 251 245 160 256 266 274 300 327 339 14 59 57 145 144 147 160 169 178 178 180 186 190 193 197 201 202 204 205 205 206 205
238 246 232 171 254 259 278 271 275 286 324 300 185 156 149 150 162 173 181 184 182 183 187 189 194 203 204 207 209 212 213 215
302 281 249 206 244 281 284 248 260 219 76 37 181 178 175 174 176 180 185 189 188 187 190 189 194 201 205 210 213 214 218 221
223 249 247 273 261 250 260 261 233 273 305 252 207 199 196 194 198 192 193 193 192 190 191 191 195 197 201 205 209 216 217 219
247 230 250 252 277 258 248 255 275 288 291 261 223 215 208 210 206 202 199 198 199 198 203 196 198 202 202 203 210 214 220 225
244 242 248 259 252 255 253 252 262 281 291 259 234 217 212 219 220 206 207 205 204 203 209 210 207 206 205 207 214 218 222 228
238 238 232 244 248 235 244 238 260 260 261 239 223 206 206 214 214 208 206 208 205 208 212 211 215 212 215 221 217 222 224 226
234 237 234 232 246 230 244 251 249 247 254 252 228 218 221 230 232 221 219 212 209 209 212 219 225 226 221 220 221 227 228 233
189 218 222 220 246 205 191 242 248 241 251 263 262 260 250 248 242 231 219 220 215 212 215 226 224 230 226 226 230 234 239 235
164 207 190 212 246 174 200 234 250 254 251 262 283 17 13 321 262 247 236 226 228 226 218 219 222 225 227 232 242 251 250 246
250 160 224 214 246 235 232 233 237 244 253 276 343 26 10 358 323 267 238 236 228 231 231 226 227 234 228 221 225 252 255 252
235 237 252 247 253 245 228 225 232 214 218 335 348 4 1 2 3 342 264 237 232 234 233 229 232 231 229 215 211 209 222 254
255 230 222 225 242 234 222 191 139 187 40 359 346 352 358 356 353 357 341 255 242 236 236 236 233 231 227 227 226 223 213 243
255 163 236 257 240 213 137 145 115 66 40 16 -0 351 355 356 356 350 345 327 262 243 231 235 230 235 234 229 229 226 231 244
225 225 244 196 259 184 163 147 93 49 33 20 13 9 5 4 2 357 344 337 313 251 240 233 232 229 236 231 234 235 239 249